This is the latest recevied weather packets stored in our database for station/object 9W2CHF-2. If no packets are shown the sender has not sent any weather packets the latest 10 day(s).
| Time | Temp. | Humidity | Pressure | Rain* | Wind** | Luminosity | Snow |
|---|---|---|---|---|---|---|---|
| 1788508903 | 34.44° C | 53% | 1010.2 hPa | - | - | - | - |
| 1788508003 | 34.44° C | 54% | 1010.3 hPa | - | - | - | - |
| 1788507103 | 34.44° C | 54% | 1010.5 hPa | - | - | - | - |
| 1788506203 | 34.44° C | 55% | 1010.6 hPa | - | - | - | - |
| 1788505303 | 34.44° C | 55% | 1010.7 hPa | - | - | - | - |
| 1788504403 | 34.44° C | 55% | 1010.9 hPa | - | - | - | - |
| 1788503503 | 34.44° C | 56% | 1011 hPa | - | - | - | - |
| 1788502602 | 34.44° C | 57% | 1011.3 hPa | - | - | - | - |
| 1788501702 | 34.44° C | 55% | 1011.6 hPa | - | - | - | - |
| 1788500802 | 34.44° C | 57% | 1012 hPa | - | - | - | - |
| 1788499902 | 34.44° C | 57% | 1012.1 hPa | - | - | - | - |
| 1788499002 | 34.44° C | 57% | 1012.5 hPa | - | - | - | - |
| 1788498102 | 33.89° C | 56% | 1012.6 hPa | - | - | - | - |
| 1788497202 | 33.89° C | 58% | 1012.8 hPa | - | - | - | - |
| 1788496302 | 34.44° C | 57% | 1013 hPa | - | - | - | - |
| 1788495401 | 33.89° C | 57% | 1013.2 hPa | - | - | - | - |
| 1788494501 | 33.89° C | 57% | 1013.3 hPa | - | - | - | - |
| 1788493607 | 33.89° C | 58% | 1013.6 hPa | - | - | - | - |
| 1788492707 | 33.89° C | 59% | 1013.7 hPa | - | - | - | - |
| 1788491806 | 33.89° C | 59% | 1013.9 hPa | - | - | - | - |
| 1788490906 | 33.89° C | 59% | 1014 hPa | - | - | - | - |
| 1788490006 | 33.89° C | 60% | 1014.1 hPa | - | - | - | - |
| 1788489106 | 33.33° C | 62% | 1014.1 hPa | - | - | - | - |
| 1788488206 | 32.78° C | 67% | 1014.2 hPa | - | - | - | - |
| 1788487306 | 32.22° C | 67% | 1014.3 hPa | - | - | - | - |
* Rain since midnight (hover to see other rain measurements)
** Current wind speed in m/s (hover to see current wind gust speed)